Date,TemperatureHighF,TemperatureAvgF,TemperatureLowF,DewpointHighF,DewpointAvgF,DewpointLowF,HumidityHigh,HumidityAvg,HumidityLow,PressureMaxIn,PressureMinIn,WindSpeedMaxMPH,WindSpeedAvgMPH,GustSpeedMaxMPH,PrecipitationSumIn
2013-1-1,13,4,-10,6,-4,-17,72,72,72,30.00,28.52,5,2,17,0.00
2013-1-2,17,16,13,15,12,6,92,84,72,29.85,29.76,5,2,15,0.00
2013-1-3,22,16,11,16,9,1,90,74,58,30.00,29.79,10,3,21,0.00
2013-1-4,34,18,10,21,10,0,87,68,58,29.94,29.76,4,1,15,0.00
2013-1-5,29,18,8,18,11,3,87,74,56,29.94,29.68,6,1,13,0.00
2013-1-6,25,21,14,21,14,5,89,74,58,30.00,29.76,4,1,12,0.00
2013-1-7,36,26,14,23,18,4,84,71,58,29.85,29.65,12,3,34,0.00
2013-1-8,35,25,12,29,20,8,90,80,65,29.85,29.59,10,2,26,0.00
2013-1-9,35,29,20,27,21,14,88,72,55,30.15,29.65,9,3,22,0.00
2013-1-10,40,32,20,34,19,15,99,61,41,30.18,29.65,6,3,18,0.21
2013-1-11,40,36,34,40,36,34,100,100,100,29.65,29.26,7,2,17,0.25
2013-1-12,41,23,12,41,18,4,100,81,66,29.85,29.23,14,4,26,0.04
2013-1-13,12,8,4,4,0,-4,69,69,69,29.97,29.79,4,2,10,0.00
2013-1-14,12,6,2,4,-2,-6,69,69,69,30.15,29.97,6,2,15,0.00
2013-1-15,26,17,8,16,7,0,75,66,50,30.09,29.65,11,4,28,0.00
2013-1-16,29,22,8,26,14,-6,100,73,47,29.97,29.44,11,3,35,0.00
2013-1-17,12,4,-4,-2,-10,-17,52,52,52,30.18,30.00,4,1,11,0.00
2013-1-18,28,17,-2,20,8,-15,86,69,52,30.09,29.59,5,1,16,0.00
2013-1-19,33,21,0,29,15,-8,92,79,54,29.88,29.44,11,3,28,0.00
2013-1-20,5,-2,-8,-3,-9,-15,69,69,69,30.09,29.88,7,2,15,0.00
2013-1-21,-5,-12,-17,-13,-19,-24,69,69,69,30.03,29.94,7,2,15,0.00
2013-1-22,0,-10,-19,-8,-18,-26,69,69,69,30.09,30.00,4,1,14,0.00
2013-1-23,10,-4,-11,2,-11,-19,69,69,69,30.33,29.88,12,2,19,0.00
2013-1-24,6,-4,-18,-2,-12,-26,69,69,69,30.39,30.00,6,2,19,0.00
2013-1-25,18,11,2,11,3,-7,78,68,63,30.03,28.38,10,2,18,0.58
2013-1-26,20,9,-8,7,-2,-16,67,63,56,30.15,29.97,7,1,14,0.00
2013-1-27,33,25,17,27,17,7,96,70,51,30.00,29.71,8,2,18,0.00
2013-1-28,36,29,23,32,27,22,100,93,78,29.76,29.56,4,1,9,0.00
2013-1-29,34,31,26,33,30,24,100,97,90,29.59,29.38,5,1,10,0.00
2013-1-30,26,16,7,22,11,1,87,79,70,29.56,29.41,7,2,14,0.00
2013-1-31,9,4,-5,3,-2,-11,75,75,75,29.91,29.50,8,2,18,0.00
2013-2-1,0,-7,-18,-6,-13,-23,75,75,75,30.03,29.88,8,2,14,0.00
2013-2-2,13,2,-12,7,-4,-17,75,75,75,29.94,29.76,4,1,12,0.00
2013-2-3,15,6,2,6,-4,-13,75,63,48,29.82,29.74,7,1,15,0.00
2013-2-4,15,2,-15,-2,-13,-29,48,47,46,29.85,29.62,8,1,12,0.00
2013-2-5,22,13,2,16,4,-8,94,68,46,29.88,29.50,4,1,12,0.04
2013-2-6,22,13,-3,19,6,-10,92,76,64,29.94,29.82,3,1,13,0.00
2013-2-7,26,22,16,21,19,13,94,88,78,30.09,29.91,7,2,15,0.00
2013-2-8,27,17,6,16,10,1,89,74,56,30.21,30.09,4,1,11,0.04
2013-2-9,26,20,9,22,16,1,97,86,69,30.09,29.85,8,3,22,0.00
2013-2-10,32,27,22,32,26,22,100,99,96,29.85,29.20,5,2,15,0.00
2013-2-11,31,26,20,31,23,16,100,91,79,29.79,29.17,5,1,11,0.00
2013-2-12,32,22,15,22,17,12,89,82,67,29.82,29.62,5,1,22,0.09
2013-2-13,40,30,20,28,24,17,91,79,59,29.62,29.50,5,2,11,0.20
2013-2-14,30,23,8,25,15,-3,91,74,56,29.91,29.50,6,2,13,0.00
2013-2-15,17,10,3,2,-4,-12,58,53,46,30.03,29.91,6,1,15,0.00
2013-2-16,18,3,-11,1,-12,-25,50,48,46,30.00,29.94,4,1,10,0.00
2013-2-17,59,13,-8,44,-2,-26,81,52,23,29.94,28.52,9,3,27,0.00
2013-2-18,33,25,14,24,18,8,92,76,62,29.59,29.38,7,3,23,0.00
2013-2-19,14,5,-2,8,-1,-8,77,77,77,30.06,29.53,8,4,19,0.00
2013-2-20,22,10,2,6,-1,-12,77,62,46,30.24,30.09,5,2,11,0.00
2013-2-21,30,12,-6,14,0,-20,81,58,45,30.27,29.97,5,2,12,0.00
2013-2-22,30,23,18,22,18,14,87,81,72,29.97,29.68,6,2,11,0.00
2013-2-23,35,27,21,27,23,18,91,84,67,29.74,29.65,3,0,7,0.00
2013-2-24,38,29,18,26,22,14,90,76,55,29.94,29.76,4,1,11,0.08
2013-2-25,34,23,9,26,17,5,82,78,67,29.97,29.91,8,1,11,0.00
2013-2-26,41,26,9,28,18,4,89,74,53,29.94,29.76,8,3,22,0.20
2013-2-27,31,29,28,26,24,22,85,80,73,29.85,29.74,8,4,18,0.00
2013-2-28,29,25,21,22,17,13,80,73,63,30.09,29.85,8,3,18,0.00
2013-3-1,28,21,8,14,11,1,75,67,52,30.24,30.06,5,3,17,0.00
2013-3-2,31,14,-3,12,1,-10,72,57,40,30.21,30.06,5,1,11,0.00
2013-3-3,34,17,-3,10,0,-15,63,49,34,30.09,29.97,7,2,11,0.00
2013-3-4,33,24,12,17,8,1,70,52,37,30.03,29.97,6,2,18,0.00
2013-3-5,32,25,20,18,16,13,85,70,51,30.18,29.97,10,2,16,0.00
2013-3-6,32,22,11,18,11,0,85,64,44,30.27,30.15,5,1,18,0.04
2013-3-7,36,20,2,16,6,-8,70,56,42,30.30,30.24,5,1,11,0.00
2013-3-8,43,31,20,25,19,10,76,62,48,30.27,30.09,9,2,22,0.00
2013-3-9,34,33,30,34,30,20,98,88,64,30.09,29.71,7,2,18,0.17
2013-3-10,34,32,28,33,29,23,98,87,74,29.91,29.74,8,3,19,0.08
2013-3-11,28,26,22,25,21,16,96,84,71,29.82,29.68,7,3,22,0.00
2013-3-12,30,22,17,17,14,10,86,71,45,30.03,29.71,5,2,13,0.00
2013-3-13,34,22,8,11,6,3,78,56,31,30.24,30.03,7,1,13,0.04
2013-3-14,37,25,10,26,14,0,79,63,54,30.15,29.94,6,1,16,0.00
2013-3-15,34,26,16,26,17,11,86,69,48,29.94,29.85,8,3,14,0.00
2013-3-16,29,18,7,14,6,-6,89,62,44,30.12,29.88,6,2,16,0.00
2013-3-17,28,14,-7,6,-4,-20,55,45,35,30.15,29.88,7,2,24,0.00
2013-3-18,32,23,16,26,17,7,93,78,55,29.85,29.50,9,4,22,0.00
2013-3-19,28,17,9,12,4,-6,82,59,37,29.94,29.56,10,4,28,0.00
2013-3-20,22,12,4,4,-5,-12,51,46,44,30.00,29.94,7,2,19,0.00
2013-3-21,31,18,4,10,2,-10,64,49,41,30.00,29.94,6,1,13,0.05
2013-3-22,39,21,1,18,7,-10,71,54,41,30.00,29.94,6,1,15,0.00
2013-3-23,38,26,13,22,14,6,78,63,46,30.09,30.00,4,1,12,0.00
2013-3-24,34,27,20,21,17,13,75,66,55,30.06,29.94,8,2,15,0.03
2013-3-25,36,27,15,23,17,10,85,67,50,30.12,29.94,5,1,13,0.00
2013-3-26,41,33,24,25,18,16,78,57,40,30.18,30.12,4,1,11,0.00
2013-3-27,44,34,25,24,18,12,73,54,36,30.24,30.18,5,1,12,0.00
2013-3-28,46,32,17,22,15,9,73,52,32,30.27,30.21,5,1,11,0.00
2013-3-29,49,36,20,25,20,12,72,54,36,30.24,30.06,9,2,16,0.00
2013-3-30,46,38,33,42,35,23,98,88,58,30.06,29.74,5,1,14,0.38
2013-3-31,36,32,24,32,21,8,98,69,40,29.94,29.68,8,2,19,0.00
2013-4-1,32,25,17,9,7,5,59,45,35,30.09,29.94,8,3,22,0.08
2013-4-2,36,26,14,13,8,4,65,46,32,30.24,30.09,6,1,15,0.00
2013-4-3,43,29,12,22,11,1,64,48,31,30.33,29.97,12,3,26,0.00
2013-4-4,48,40,30,30,22,14,66,50,35,30.09,29.88,9,3,26,0.00
2013-4-5,42,33,21,23,16,12,71,50,35,30.18,30.00,6,2,17,0.00
2013-4-6,42,34,32,32,29,24,98,81,61,30.00,29.56,8,2,30,0.17
2013-4-7,39,35,32,34,32,30,98,89,76,29.88,29.65,4,0,7,0.24
2013-4-8,42,36,33,40,36,32,98,97,91,30.00,29.74,4,1,11,0.46
2013-4-9,42,35,31,36,28,17,98,76,49,30.12,29.97,6,2,18,0.00
2013-4-10,39,34,29,26,20,16,83,58,43,30.15,29.94,10,3,21,0.00
2013-4-11,35,31,26,26,21,13,89,69,45,29.97,29.71,7,4,25,0.00
2013-4-12,39,30,25,28,24,20,91,79,54,29.76,29.65,8,3,21,0.00
2013-4-13,39,29,22,24,20,16,88,70,49,29.91,29.74,5,1,11,0.08
2013-4-14,42,30,16,33,22,11,98,76,44,29.91,29.59,9,2,22,0.09
2013-4-15,39,35,33,34,29,25,98,79,62,29.82,29.53,15,4,33,0.21
2013-4-16,46,37,30,33,27,20,88,69,41,30.27,29.82,9,2,15,0.24
2013-4-17,40,34,29,31,26,22,94,73,57,30.30,29.97,6,2,15,0.00
2013-4-18,35,32,30,34,31,29,98,97,91,29.97,29.38,8,3,17,0.00
2013-4-19,34,28,18,29,25,15,98,90,77,29.85,29.32,6,2,17,0.00
2013-4-20,37,25,6,23,14,3,88,64,42,30.24,29.88,5,1,11,0.54
2013-4-21,37,32,23,36,26,15,98,80,59,30.27,30.00,11,3,26,0.38
2013-4-22,48,38,32,38,30,21,98,76,39,30.15,30.03,5,2,14,0.08
2013-4-23,43,35,27,31,25,17,98,70,41,30.03,29.94,6,1,14,0.29
2013-4-24,48,34,20,32,23,14,92,68,41,29.94,29.82,14,2,23,0.08
2013-4-25,48,38,26,35,26,21,93,66,38,30.12,29.88,9,2,18,0.00
2013-4-26,64,48,35,40,33,24,89,59,39,30.09,29.97,8,2,21,0.13
2013-4-27,71,52,33,45,35,29,89,57,27,30.12,29.91,7,2,17,0.00
2013-4-28,72,59,48,51,44,40,94,61,34,29.91,29.71,12,3,27,0.33
2013-4-29,73,60,39,48,42,37,98,56,32,29.76,28.35,5,2,15,0.00
2013-4-30,79,61,47,58,44,26,95,59,31,29.82,29.41,12,3,38,0.00
2013-5-1,53,40,33,37,33,29,96,79,40,30.33,29.82,4,1,11,0.17
2013-5-2,38,32,30,32,29,27,98,88,74,30.39,30.27,3,0,11,0.00
2013-5-3,33,30,29,30,28,27,96,91,80,30.30,30.06,8,2,17,0.00
2013-5-4,41,35,30,37,33,29,98,94,85,30.09,30.00,5,3,13,0.41
2013-5-5,54,42,33,41,36,32,98,81,57,30.09,30.00,5,2,11,0.05
2013-5-6,72,52,33,46,39,32,98,67,35,30.03,29.94,4,1,10,0.00
2013-5-7,77,63,41,45,40,37,85,47,25,29.97,29.91,3,1,19,0.00
2013-5-8,81,59,41,52,45,37,86,63,30,29.97,29.88,4,1,13,0.00
2013-5-9,56,42,37,50,38,28,97,86,70,30.06,29.88,9,3,16,0.20
2013-5-10,60,46,32,31,28,24,90,55,27,30.06,29.79,7,2,13,0.00
2013-5-11,45,40,36,32,26,21,81,58,43,30.03,29.76,10,3,23,0.00
2013-5-12,53,42,31,23,20,15,61,43,27,30.06,29.97,8,2,19,0.00
2013-5-13,60,47,27,33,24,15,66,43,25,30.03,29.65,9,3,22,0.00
2013-5-14,84,64,39,49,39,30,75,44,23,29.74,29.44,15,3,27,0.00
2013-5-15,80,66,48,46,39,30,74,41,21,29.79,29.56,6,2,23,0.00
2013-5-16,75,62,50,41,34,26,67,38,21,29.94,29.76,7,2,13,0.00
2013-5-17,73,62,49,50,40,29,72,46,32,29.97,29.91,7,3,21,0.00
2013-5-18,71,60,53,62,56,47,98,88,68,29.94,29.76,10,2,19,0.87
2013-5-19,83,66,56,66,60,53,98,83,42,29.79,29.62,10,2,22,0.58
2013-5-20,73,58,44,63,55,44,98,89,58,29.62,29.44,9,2,19,0.50
2013-5-21,57,48,41,50,44,40,98,89,73,29.71,29.50,6,2,11,0.75
2013-5-22,50,45,41,46,43,40,98,93,82,29.94,29.68,8,3,32,0.04
2013-5-23,54,46,37,39,29,27,80,52,36,30.21,29.94,6,2,19,0.00
2013-5-24,68,51,31,37,32,27,89,54,27,30.27,30.15,11,1,17,0.00
2013-5-25,67,56,46,45,41,36,78,59,37,30.18,30.12,8,2,19,0.00
2013-5-26,71,56,41,45,36,30,93,53,25,30.15,29.97,8,2,22,0.00
2013-5-27,69,58,46,45,41,34,75,54,37,29.97,29.79,7,2,22,0.00
2013-5-28,66,59,54,56,50,43,96,71,60,29.79,29.65,4,2,18,0.00
2013-5-29,79,65,56,65,58,55,98,81,44,29.74,29.68,7,2,17,0.00
2013-5-30,78,69,62,68,63,60,98,84,62,29.68,29.53,12,2,22,0.87
2013-5-31,80,67,55,63,57,47,96,74,38,29.59,29.47,16,4,27,0.37
2013-6-1,67,56,44,62,54,44,98,92,75,29.79,29.47,5,1,12,0.21
2013-6-2,65,52,43,44,40,36,98,69,36,29.94,29.79,6,2,11,0.04
2013-6-3,70,55,38,47,38,31,96,59,33,29.97,29.88,4,1,11,0.00
2013-6-4,63,55,49,54,45,32,97,69,46,30.06,29.97,4,1,13,0.09
2013-6-5,55,52,50,54,52,49,98,98,95,30.03,29.88,4,1,11,1.25
2013-6-6,55,51,49,53,50,48,98,96,91,29.94,29.88,3,1,13,0.00
2013-6-7,70,57,45,54,47,41,98,75,37,29.97,29.85,5,1,11,0.00
2013-6-8,75,62,52,58,50,45,98,69,37,29.91,29.82,6,1,14,0.00
2013-6-9,61,56,52,60,54,50,98,95,83,29.88,29.74,4,1,13,0.25
2013-6-10,76,64,56,65,60,55,98,87,60,29.76,29.74,4,1,11,0.00
2013-6-11,80,70,56,66,58,51,98,67,40,29.82,29.76,3,1,10,0.00
2013-6-12,80,68,53,57,52,48,96,61,34,29.82,29.76,4,1,11,0.00
2013-6-13,75,63,54,54,49,44,83,62,35,30.06,29.82,5,2,15,0.00
2013-6-14,79,65,50,54,49,44,96,61,33,30.06,29.88,5,2,21,0.00
2013-6-15,70,64,58,67,62,55,98,93,77,29.88,29.76,5,1,11,0.25
2013-6-16,81,65,50,64,53,46,98,71,30,29.82,29.74,8,1,17,0.00
2013-6-17,69,59,47,59,52,42,98,79,61,29.97,29.76,5,2,15,0.03
2013-6-18,75,59,43,49,42,39,96,60,29,30.06,30.00,6,2,14,0.00
2013-6-19,80,65,47,57,51,41,91,63,38,30.00,29.94,7,1,15,0.00
2013-6-20,79,66,59,66,62,56,98,87,62,30.00,29.91,7,1,15,1.53
2013-6-21,69,64,60,66,63,60,98,96,85,30.06,29.71,5,1,13,1.70
2013-6-22,73,65,59,70,63,58,98,94,74,29.94,29.79,6,1,11,0.05
2013-6-23,81,71,62,71,65,62,98,84,60,29.85,29.68,10,2,26,0.12
2013-6-24,84,72,59,69,63,58,98,76,44,29.88,29.79,5,1,17,0.00
2013-6-25,86,73,61,70,65,60,98,79,47,29.82,29.74,5,1,14,0.00
2013-6-26,85,72,66,75,69,64,98,91,73,29.76,29.68,6,1,16,0.04
2013-6-27,87,72,63,71,61,51,98,73,37,29.76,29.71,9,2,19,0.00
2013-6-28,71,64,60,68,62,57,98,94,82,29.71,29.65,5,1,11,0.58
2013-6-29,72,63,52,62,56,48,98,79,49,29.88,29.68,6,1,12,0.00
2013-6-30,82,65,47,61,51,46,98,67,31,30.06,29.88,4,1,11,0.00
2013-7-1,81,66,53,63,52,44,96,66,37,30.15,30.03,4,1,10,0.00
2013-7-2,80,63,47,58,44,35,92,57,24,30.12,30.00,4,1,13,0.00
2013-7-3,84,65,45,58,47,41,89,58,26,30.03,29.94,5,1,9,0.00
2013-7-4,86,71,54,62,57,52,94,65,39,29.94,29.88,6,2,23,0.00
2013-7-5,86,76,66,62,58,54,79,55,34,29.91,29.85,8,3,26,0.00
2013-7-6,89,76,72,73,64,58,90,67,45,29.91,29.85,7,2,20,0.00
2013-7-7,86,76,64,74,69,63,98,82,63,29.91,29.82,6,1,13,0.17
2013-7-8,82,68,59,71,64,58,98,90,68,29.97,29.82,4,1,8,0.04
2013-7-9,74,68,60,73,67,59,98,96,89,29.94,29.74,7,0,13,0.37
2013-7-10,75,66,57,63,56,51,96,72,45,29.97,29.79,4,1,11,0.00
2013-7-11,82,68,52,63,56,51,98,70,37,30.03,29.94,7,1,16,0.00
2013-7-12,84,74,64,63,59,57,83,63,41,30.00,29.94,8,3,26,0.00
2013-7-13,81,73,68,67,62,57,85,70,60,30.06,29.91,6,2,18,0.00
2013-7-14,86,74,67,68,64,60,94,73,42,30.18,30.06,8,1,18,0.00
2013-7-15,88,75,63,70,65,61,98,74,43,30.24,30.15,5,1,19,0.00
2013-7-16,92,79,68,77,70,66,98,76,50,30.21,30.15,8,2,22,0.09
2013-7-17,93,80,68,75,69,65,98,73,43,30.24,30.12,6,1,17,0.00
2013-7-18,94,82,71,75,70,66,94,69,43,30.12,29.76,11,3,23,0.00
2013-7-19,81,75,65,72,64,54,97,70,41,29.82,29.68,6,2,21,0.08
2013-7-20,73,65,54,60,52,46,86,67,42,29.97,29.79,4,1,9,0.00
2013-7-21,77,65,52,60,55,45,92,71,52,29.97,29.79,5,1,11,0.00
2013-7-22,83,70,60,71,62,54,98,78,45,29.79,29.65,7,2,17,0.00
2013-7-23,74,63,54,53,51,47,91,68,40,29.97,29.74,6,2,12,0.00
2013-7-24,75,62,48,59,51,46,95,72,43,30.00,29.88,6,1,16,0.00
2013-7-25,83,68,58,66,58,54,97,74,41,29.91,29.82,5,1,22,0.54
2013-7-26,68,57,49,63,55,48,98,93,72,29.97,29.76,4,1,11,0.04
2013-7-27,56,50,46,52,48,45,98,92,77,29.97,29.79,4,1,14,0.08
2013-7-28,63,55,50,58,53,49,98,93,75,29.97,29.82,4,0,9,0.09
2013-7-29,76,62,46,62,53,46,98,78,45,30.06,29.97,4,0,14,0.00
2013-7-30,69,64,59,63,60,57,98,89,74,30.03,29.97,5,1,13,0.00
2013-7-31,76,66,56,68,57,46,98,78,38,29.97,29.88,5,1,18,0.04
2013-8-1,75,62,50,60,53,49,98,75,46,29.88,29.76,4,1,13,0.00
2013-8-2,75,63,50,60,52,48,98,73,41,29.97,29.74,4,1,13,0.00
2013-8-3,73,60,46,59,50,45,97,72,42,30.12,29.97,4,1,12,0.00
2013-8-4,74,60,46,57,51,44,98,75,44,30.15,29.94,4,0,11,0.00
2013-8-5,70,62,55,67,60,52,98,95,85,29.94,29.74,4,1,15,0.66
2013-8-6,75,66,61,65,62,60,98,88,59,29.76,29.65,5,1,14,0.08
2013-8-7,73,64,52,62,55,47,98,75,42,29.94,29.71,5,1,11,0.05
2013-8-8,74,59,48,62,55,47,98,86,50,29.94,29.88,6,1,14,0.16
2013-8-9,71,61,51,57,53,46,98,77,44,30.03,29.85,5,1,14,0.00
2013-8-10,72,62,54,60,55,52,96,80,52,30.09,30.00,4,0,11,0.00
2013-8-11,77,62,48,63,54,48,98,78,43,30.15,29.97,3,0,10,0.00
2013-8-12,76,63,49,63,53,47,98,73,47,30.09,29.97,4,1,17,0.00
2013-8-13,70,56,43,57,48,42,98,76,47,30.18,30.09,4,1,11,0.00
2013-8-14,72,59,42,56,48,41,98,71,39,30.21,30.09,3,1,8,0.00
2013-8-15,78,62,49,60,52,47,98,74,38,30.15,30.06,3,1,13,0.00
2013-8-16,81,65,50,64,54,48,97,72,36,30.21,30.09,5,1,17,0.00
2013-8-17,82,67,51,62,54,50,97,69,39,30.24,30.12,9,2,21,0.00
2013-8-18,81,69,56,61,55,53,92,64,40,30.15,30.03,8,2,24,0.00
2013-8-19,84,72,65,68,62,56,82,71,53,30.06,29.97,13,3,21,0.00
2013-8-20,89,77,66,71,68,64,94,75,53,30.00,29.97,8,2,20,0.00
2013-8-21,83,74,62,75,69,60,95,84,62,30.09,29.91,6,1,16,0.00
2013-8-22,80,68,55,60,52,44,97,63,31,30.18,30.06,4,1,11,0.00
2013-8-23,83,65,47,58,50,45,95,65,29,30.18,30.12,4,1,11,0.00
2013-8-24,84,73,63,71,65,58,92,76,55,30.15,30.03,15,3,29,0.04
2013-8-25,94,83,74,74,72,69,90,71,46,30.09,30.06,9,4,27,0.00
2013-8-26,86,77,70,78,74,69,98,90,75,30.09,29.97,4,1,23,2.12
2013-8-27,82,74,68,76,72,67,98,93,75,30.00,29.88,3,0,11,0.13
2013-8-28,84,72,63,72,67,61,98,86,48,30.12,30.00,3,0,12,0.00
2013-8-29,84,72,66,75,69,65,98,92,71,30.09,29.88,7,1,19,0.50
2013-8-30,79,70,60,70,67,60,98,90,63,30.03,29.88,4,1,11,0.00
2013-8-31,82,69,56,68,63,56,98,84,60,29.94,29.76,9,1,15,0.28
2013-9-1,74,65,57,64,61,55,98,86,65,29.97,29.76,7,1,13,0.05
2013-9-2,63,56,47,55,51,46,98,85,64,30.06,29.94,4,1,9,0.00
2013-9-3,74,55,41,58,49,41,98,83,49,30.06,30.00,5,1,16,0.00
2013-9-4,72,62,52,60,56,50,98,81,52,30.18,29.97,4,1,12,0.00
2013-9-5,74,60,46,56,50,45,98,74,41,30.27,30.12,4,1,11,0.00
2013-9-6,83,68,58,70,61,52,97,80,63,30.15,29.97,12,1,18,0.00
2013-9-7,86,69,60,74,65,58,98,86,61,30.15,29.91,7,1,13,0.00
2013-9-8,68,61,52,61,54,50,96,81,55,30.12,29.94,4,1,11,0.00
2013-9-9,78,68,61,74,66,59,98,95,85,29.94,29.74,4,1,13,0.49
2013-9-10,75,69,63,70,67,63,98,94,76,29.97,29.79,4,1,18,0.09
2013-9-11,77,65,57,67,58,49,98,81,42,30.06,29.97,10,1,15,0.00
2013-9-12,64,57,45,56,50,42,98,82,53,30.24,30.03,6,1,14,0.04
2013-9-13,63,50,38,54,44,36,98,83,51,30.27,30.09,3,0,10,0.00
2013-9-14,71,56,44,55,50,42,97,81,49,30.09,29.94,7,1,17,0.16
2013-9-15,57,53,39,56,50,38,98,92,79,30.33,29.94,6,1,12,0.13
2013-9-16,63,47,34,48,40,33,98,80,46,30.44,30.30,5,1,12,0.00
2013-9-17,68,55,44,53,45,41,97,72,44,30.30,30.03,8,3,23,0.00
2013-9-18,66,61,56,65,61,53,98,97,86,30.00,29.79,5,1,14,0.20
2013-9-19,72,67,64,71,66,64,98,98,96,29.82,29.71,7,1,25,1.25
2013-9-20,65,58,48,65,55,46,98,92,71,29.88,29.76,3,0,10,0.09
2013-9-21,58,50,42,48,43,39,96,81,54,29.97,29.85,5,1,11,0.00
2013-9-22,62,50,38,48,42,38,98,77,48,30.06,29.97,6,1,15,0.00
2013-9-23,68,57,47,51,47,42,95,73,48,30.06,29.97,7,2,19,0.00
2013-9-24,71,58,47,54,50,47,98,78,44,30.06,30.00,5,2,11,0.00
2013-9-25,71,60,45,58,51,45,98,77,50,29.97,29.91,8,1,15,0.00
2013-9-26,71,59,48,55,51,46,98,76,51,29.97,29.91,7,2,17,0.00
2013-9-27,74,67,59,61,55,50,74,66,52,29.97,29.85,7,3,17,0.00
2013-9-28,71,60,48,63,53,48,98,79,50,29.88,29.59,18,3,28,0.42
2013-9-29,70,56,44,53,47,43,98,76,40,29.91,29.79,8,1,18,0.04
2013-9-30,71,62,53,51,48,45,79,62,46,29.82,29.65,11,3,30,0.00
2013-10-1,74,61,49,56,45,34,80,58,26,29.88,29.59,5,1,19,0.00
2013-10-2,72,55,39,51,42,35,93,66,29,30.00,29.88,4,1,13,0.16
2013-10-3,56,53,52,55,52,50,98,97,93,29.94,29.82,5,1,14,0.96
2013-10-4,59,54,51,54,52,51,98,94,82,30.03,29.94,8,3,14,0.08
2013-10-5,56,52,50,55,52,50,98,98,97,29.97,29.68,7,1,14,0.83
2013-10-6,57,51,43,54,50,43,98,96,86,29.74,29.62,3,0,9,0.09
2013-10-7,61,47,37,50,42,36,98,84,48,29.97,29.74,8,1,12,0.03
2013-10-8,72,57,39,47,42,38,98,62,33,29.94,29.85,15,3,31,0.00
2013-10-9,72,62,51,51,46,42,85,57,42,30.03,29.91,14,3,26,0.00
2013-10-10,71,58,48,49,46,43,91,68,38,30.06,29.94,10,1,18,0.00
2013-10-11,73,62,50,54,50,46,91,67,44,29.94,29.71,14,4,30,0.00
2013-10-12,66,55,47,55,45,39,91,71,50,30.03,29.68,10,4,29,0.00
2013-10-13,57,47,37,45,36,30,93,69,37,30.33,30.03,4,1,12,0.00
2013-10-14,54,44,33,39,35,30,94,72,54,30.36,30.03,4,1,9,0.00
2013-10-15,50,48,45,50,45,27,98,93,45,30.06,29.68,6,2,13,1.37
2013-10-16,46,42,34,45,40,33,98,94,78,29.85,29.74,4,1,13,0.13
2013-10-17,52,43,32,44,40,32,98,90,69,29.82,29.74,3,0,6,0.08
2013-10-18,49,42,36,44,38,31,98,87,54,29.85,29.74,3,1,10,0.25
2013-10-19,43,38,31,40,37,31,98,96,87,29.76,29.62,4,0,9,0.29
2013-10-20,39,33,29,38,32,28,98,98,95,29.74,29.65,3,0,13,0.04
2013-10-21,34,32,31,33,30,27,98,91,78,29.79,29.71,5,2,17,0.04
2013-10-22,36,33,28,33,30,25,98,87,72,29.94,29.79,2,0,9,0.13
2013-10-23,38,32,26,31,25,20,96,77,54,29.94,29.85,5,1,13,0.04
2013-10-24,39,34,31,30,27,24,86,75,60,30.15,29.94,5,1,14,0.08
2013-10-25,49,39,27,38,30,25,94,72,51,30.15,29.65,14,2,30,0.09
2013-10-26,48,40,37,36,31,27,85,70,54,29.94,29.65,7,2,18,0.00
2013-10-27,49,38,31,32,29,26,84,69,50,30.09,29.74,6,2,17,0.00
2013-10-28,41,34,27,28,22,18,79,63,42,30.39,30.09,5,2,17,0.00
2013-10-29,34,32,26,33,29,21,96,90,79,30.33,30.06,1,0,6,0.04
2013-10-30,48,42,34,48,41,34,98,98,97,30.06,29.68,4,1,14,0.16
2013-10-31,51,47,44,50,47,43,98,98,98,29.65,29.29,0,0,7,0.13
2013-11-1,43,40,34,43,39,34,98,98,96,29.74,29.29,4,0,10,0.04
2013-11-2,42,36,28,37,31,25,98,84,56,30.03,29.74,5,0,11,0.00
2013-11-3,47,38,27,34,30,26,98,75,52,30.09,29.91,7,2,31,0.00
2013-11-4,43,41,33,43,37,31,98,84,64,30.03,29.79,13,3,28,0.16
2013-11-5,45,36,29,36,31,27,98,86,55,30.15,29.94,8,1,12,0.08
2013-11-6,37,30,22,32,28,19,98,90,75,30.03,29.88,4,0,10,0.05
2013-11-7,37,25,18,29,21,15,91,83,65,30.09,30.03,3,0,12,0.04
2013-11-8,37,29,17,34,24,14,93,83,73,30.09,29.56,7,2,23,0.04
2013-11-9,35,35,34,34,31,29,97,86,80,29.56,28.44,5,3,15,0.00
2013-11-10,42,36,32,31,27,24,87,72,51,28.76,28.55,6,2,18,0.04
2013-11-11,33,22,14,29,9,2,85,57,44,29.09,28.55,6,2,19,0.00
2013-11-12,28,19,12,10,5,0,69,54,44,29.14,28.88,7,2,15,0.00
2013-11-13,46,33,19,29,20,6,77,59,45,28.88,28.35,12,4,27,0.00
2013-11-14,44,36,30,34,30,27,88,78,63,28.35,28.26,5,1,11,0.00
2013-11-15,50,38,29,39,33,27,98,81,58,28.38,28.23,7,1,15,0.00
2013-11-16,48,42,39,47,39,33,98,88,77,28.23,27.85,7,2,22,0.33
2013-11-17,48,40,31,48,39,27,98,96,85,28.17,27.85,7,2,22,0.05
2013-11-18,30,27,25,26,18,15,86,69,56,30.15,28.17,11,3,22,0.00
2013-11-19,38,29,18,20,17,13,86,63,45,30.18,29.88,14,3,30,0.00
2013-11-20,42,38,34,30,23,17,85,56,42,29.97,29.88,14,4,30,0.00
2013-11-21,35,31,23,34,27,14,98,86,68,30.33,29.97,5,2,15,0.00
2013-11-22,31,22,11,14,9,-1,79,60,40,30.39,30.24,6,2,21,0.00
2013-11-23,15,10,2,1,-4,-14,57,52,46,30.59,30.39,6,2,16,0.00
2013-11-24,26,14,0,12,-1,-15,56,49,46,30.50,29.82,18,4,34,0.00
2013-11-25,36,31,26,26,20,12,73,62,50,29.88,29.74,9,3,30,0.00
2013-11-26,27,16,12,11,2,-4,69,52,46,30.18,29.91,10,3,18,0.00
2013-11-27,24,18,11,15,9,-2,82,69,49,30.21,30.03,3,1,7,0.00
2013-11-28,24,17,4,18,11,-1,83,77,69,30.36,30.00,3,0,8,0.00
2013-11-29,26,14,0,17,8,-6,82,73,62,30.41,30.09,8,2,23,0.00
2013-11-30,36,29,24,25,21,17,78,72,62,30.06,29.94,6,1,16,0.00
2013-12-1,34,29,25,26,23,19,83,76,67,30.09,29.88,4,0,10,0.00
2013-12-2,33,28,20,30,26,16,98,89,80,29.85,29.65,6,2,14,0.00
2013-12-3,32,30,25,32,29,23,98,96,92,29.82,29.65,3,1,11,0.00
2013-12-4,32,28,23,32,27,22,98,96,92,29.79,29.32,4,1,13,0.00
2013-12-5,23,9,-2,22,6,-5,96,88,86,30.09,29.44,4,2,11,0.00
2013-12-6,4,-5,-11,1,-8,-14,87,87,87,30.39,30.09,1,0,9,0.00
2013-12-7,0,-10,-18,-3,-13,-21,87,87,87,30.50,29.06,8,1,17,0.00
2013-12-8,10,-1,-17,6,-4,-20,87,87,87,30.41,29.91,5,1,11,0.00
2013-12-9,8,0,-10,5,-3,-13,87,87,87,29.94,29.82,6,2,19,0.00
2013-12-10,7,-2,-9,4,-5,-12,87,87,87,30.06,29.74,4,1,14,0.00
2013-12-11,-1,-8,-15,-4,-11,-18,87,87,87,30.33,30.09,5,1,11,0.00
2013-12-12,11,3,-8,8,0,-11,87,87,87,30.18,30.06,3,1,11,0.00
2013-12-13,11,7,2,8,4,-1,87,87,87,30.24,30.06,5,1,11,0.00
2013-12-14,16,9,4,11,5,-1,87,82,70,30.24,29.88,5,2,14,0.00
2013-12-15,3,-8,-18,-2,-12,-23,79,79,79,30.03,29.91,6,1,12,0.00
2013-12-16,11,1,-16,6,-4,-20,79,79,79,30.00,29.79,7,2,17,0.00
2013-12-17,28,16,3,23,10,-6,93,77,64,29.97,29.74,5,1,15,0.00
2013-12-18,26,10,-3,17,2,-12,79,69,62,30.00,29.59,8,1,18,0.00
2013-12-19,18,14,7,10,8,2,82,77,64,30.03,29.74,6,2,18,0.00
2013-12-20,25,12,2,16,6,-2,82,77,63,30.00,29.79,3,0,10,0.00
2013-12-21,22,17,10,15,11,4,83,77,70,29.94,29.79,3,0,7,0.00
2013-12-22,24,20,16,18,16,12,89,85,79,30.06,29.85,5,1,15,0.00
2013-12-23,19,10,-2,15,4,-10,87,77,68,30.30,28.82,3,1,7,0.00
2013-12-24,10,1,-13,2,-6,-20,70,70,70,30.30,30.00,7,2,21,0.00
2013-12-25,19,12,7,12,5,-1,82,75,70,30.00,29.91,5,2,14,0.00
2013-12-26,18,11,4,9,5,-1,82,77,65,30.06,29.94,3,0,7,0.00
2013-12-27,33,22,4,29,19,-1,98,88,78,30.03,29.74,7,2,21,0.00
2013-12-28,34,26,16,32,24,12,98,94,84,29.88,29.65,8,1,16,0.00
2013-12-29,15,-1,-20,11,-6,-23,83,82,82,30.09,29.88,8,2,13,0.00
2013-12-30,-2,-13,-24,-6,-17,-28,82,82,82,30.09,30.03,7,1,10,0.00
2013-12-31,-4,-13,-21,-8,-17,-24,82,82,82,30.24,30.00,4,1,10,0.00
2014-1-1,5,-6,-19,0,-10,-23,82,82,82,30.33,30.21,3,0,5,0.00
2014-1-2,6,-10,-21,2,-14,-25,82,82,82,30.30,30.18,4,0,7,0.00